User: anonymous   Login
Location: Unspecified
(0.0000°N, 0.0000°E)
Time: 03:11:09
(UTC+00:00)
Language:

OPTUS D1 - Orbit

View from above orbital plane
View from above orbital plane
View from above satellite
View from above satellite

Ground track
Ground track

The orbit data is extracted from the following two-line orbital elements,

1 29495U 06043B   15090.64027307 -.00000131  00000-0  10000-3 0  9996
2 29495 000.0425 004.3077 0002717 358.5258 216.3309 01.00271606 31074
Epoch (UTC): 31 March 2015 15:21:59
Eccentricity: 0.0002717
inclination: 0.0425°
perigee height: 35775 km
apogee height: 35798 km
right ascension of ascending node: 4.3077°
argument of perigee: 358.5258°
revolutions per day: 1.00271606
mean anomaly at epoch: 216.3309°
orbit number at epoch: 3107

The dashed part of the orbit path shows where the satellite is in the earth's shadow,  

DLR